Simultaneous Nadir Overpasses (SNOs) Predictions

Prediction of SNOs between LANDSAT-8 and NPP Satellite Orbit:

Table of predicted SNOs for the next 14.0 days since TLE Epoch: 2/12/2016
Index Date (LANDSAT-8) Time (LANDSAT-8) Lat,Lon (LANDSAT-8) SZA (LANDSAT-8 ) Date (NPP) Time (NPP) Lat,Lon (NPP) SZA (NPP ) Distance(km) Time Diff (sec)
1 02/13/2016 05:19:12 70.96, 97.83 84.50 02/13/2016 05:18:03 71.01, 95.85 84.64 71.77 69
2 02/13/2016 06:08:53 -70.25, -95.61 96.20 02/13/2016 06:08:32 -70.26, -95.61 96.18 1.17 21
3 02/13/2016 06:58:20 70.15, 71.89 83.70 02/13/2016 06:59:16 70.13, 71.90 83.68 2.03 56
4 02/15/2016 21:35:51 70.32,-147.26 82.98 02/15/2016 21:34:42 70.33,-147.27 83.01 1.85 69
5 02/15/2016 22:25:21 -70.21, 20.21 97.14 02/15/2016 22:25:23 -70.21, 20.25 97.14 1.46 2
6 02/15/2016 23:14:52 69.88,-172.60 82.54 02/15/2016 23:16:03 69.87,-171.93 82.49 25.84 71
7 02/18/2016 13:52:17 70.32, -31.38 82.04 02/18/2016 13:51:32 70.29, -31.42 82.03 3.13 45
8 02/18/2016 14:41:47 -70.21, 136.10 98.08 02/18/2016 14:42:14 -70.21, 136.02 98.07 3.04 27
9 02/21/2016 06:08:45 70.25, 84.41 81.02 02/21/2016 06:08:23 70.26, 84.41 81.04 1.08 22
10 02/21/2016 06:58:15 -70.14,-108.11 99.09 02/21/2016 06:59:04 -70.12,-108.06 99.13 3.15 49
11 02/23/2016 21:35:44 -70.39, 32.86 99.81 02/23/2016 21:34:31 -70.39, 32.68 99.79 6.78 73
12 02/23/2016 22:25:12 70.22,-159.74 80.02 02/23/2016 22:25:14 70.23,-159.76 80.03 0.93 2
13 02/23/2016 23:14:42 -70.12, 7.74
